Wind_Speed
41 41 41 41 41 41 40 39 39 40 41 42 42 42 42 41 40 40 40 39 38 37 37 37 36 35 35 35 35 34 34 34 34 34 35 35 35 35 35 36 38 39 42 43 41 39 39 40 41 41 41 40 39 38 39 39 39 38 39 39 38 38 37
40 41 41 41 41 41 41 41 40 40 41 42 42 43 42 42 42 41 41 41 40 39 38 37 37 36 35 35 35 34 34 34 34 34 35 35 35 35 35 36 37 39 41 43 43 41 39 39 40 41 41 41 41 39 37 38 39 40 41 40 39 38 38
38 39 39 39 39 40 40 41 41 41 41 42 42 42 42 42 43 42 42 42 41 40 39 38 37 36 35 35 34 34 34 34 34 34 34 34 34 35 35 35 35 36 39 40 42 42 41 39 39 39 41 41 41 40 38 38 41 42 42 41 39 38 38
35 36 36 36 36 37 38 39 40 40 41 41 41 41 42 42 43 43 43 43 42 41 40 38 37 36 35 35 34 34 35 35 34 34 34 34 34 34 34 33 33 34 36 37 39 40 39 38 38 39 42 42 40 39 37 38 41 43 42 41 39 38 38
33 33 33 34 34 35 35 36 37 38 38 39 40 41 41 43 43 44 44 44 43 42 40 38 37 36 36 35 34 34 35 35 35 35 34 34 34 34 34 33 33 34 35 35 35 36 36 36 38 40 42 42 39 39 39 40 42 44 43 42 39 37 37
32 32 33 33 34 34 34 35 35 36 37 38 39 40 41 43 44 44 44 44 43 42 41 39 38 38 37 35 34 34 34 35 35 35 35 35 34 34 34 34 34 34 34 34 34 35 35 35 37 38 40 40 39 40 42 42 44 44 44 42 39 37 36
33 33 33 34 35 35 36 36 36 37 38 39 40 41 42 43 44 45 45 44 44 43 42 41 40 39 38 37 35 34 34 34 35 35 35 35 35 35 35 35 35 34 34 34 34 34 35 35 35 36 38 39 41 43 44 44 45 46 45 42 39 37 36
34 34 35 36 37 37 38 39 39 40 40 41 42 42 43 44 44 45 45 45 45 44 43 42 41 41 40 39 38 37 35 34 34 35 35 35 35 36 36 36 36 35 35 35 35 35 35 36 37 37 38 40 43 45 46 45 44 44 43 41 38 37 37
35 36 37 38 39 40 40 40 41 41 42 43 43 44 44 45 45 46 45 45 44 44 44 43 43 43 42 40 40 39 38 36 35 35 35 35 35 36 37 37 37 37 36 34 34 34 34 35 37 38 40 43 44 44 43 42 41 41 41 39 38 38 38
37 38 39 40 40 40 40 40 41 41 42 43 44 45 46 47 47 46 45 44 44 44 44 45 45 44 43 42 40 38 38 37 36 36 35 34 34 35 36 36 37 37 36 35 34 34 35 36 38 39 40 42 42 41 41 41 41 40 39 38 39 39 39
38 40 41 41 41 41 41 40 40 41 42 43 45 46 47 47 47 45 44 44 45 46 46 46 46 45 43 41 38 38 38 37 37 36 35 33 33 34 34 35 36 36 37 36 35 35 36 37 39 41 42 42 42 41 41 41 40 40 38 38 38 38 38
40 41 42 42 42 42 42 41 41 42 43 44 46 47 48 48 46 44 42 43 45 47 47 47 46 43 40 39 38 37 36 35 34 34 34 33 33 34 35 35 35 36 36 37 37 37 37 37 38 41 43 42 42 42 41 40 39 38 37 36 36 36 36
41 42 42 43 43 43 43 43 43 44 45 47 48 48 49 48 45 43 41 43 46 48 47 46 43 41 40 39 36 32 32 32 31 32 33 33 33 33 34 34 34 34 35 37 38 38 37 36 37 40 42 42 42 42 41 40 38 37 35 34 33 33 33
42 42 43 43 43 43 43 43 44 45 46 48 49 49 49 47 45 43 41 41 44 44 43 41 39 38 38 35 30 27 29 31 32 32 33 34 34 34 34 33 33 32 34 36 37 36 35 35 35 37 38 39 39 39 38 37 36 35 35 34 35 35 34
43 43 43 43 43 43 43 43 44 44 45 46 47 47 46 45 43 41 39 38 38 36 34 34 33 34 35 31 26 26 28 30 32 32 33 34 35 34 33 33 33 32 32 33 34 34 34 33 34 34 35 36 36 36 35 34 34 35 36 36 38 39 38
44 44 44 43 42 42 43 43 43 43 43 44 44 44 44 43 42 40 39 38 36 33 32 31 31 33 33 30 27 28 29 31 32 34 35 35 35 33 33 34 34 32 32 32 33 32 33 33 34 34 35 35 34 34 33 33 34 35 35 35 37 38 38
44 44 44 43 43 43 44 43 42 41 41 42 43 43 43 42 41 40 38 37 35 33 32 32 32 33 31 30 29 31 32 33 35 36 36 35 33 32 33 34 33 33 33 33 32 31 31 33 33 33 33 33 33 33 33 34 34 34 34 35 36 36 36
43 43 43 43 43 44 44 43 42 41 40 41 42 43 43 43 41 39 37 36 35 33 32 32 31 30 30 30 31 32 34 36 37 37 36 34 32 32 33 33 32 32 33 32 31 30 30 31 32 32 32 32 32 33 34 35 36 36 36 36 36 35 34
43 43 43 44 44 45 45 44 43 42 41 41 41 42 43 43 40 37 36 36 35 35 35 35 33 31 32 33 33 34 37 38 37 36 34 33 32 33 33 32 31 32 32 32 32 31 31 31 31 32 32 32 33 34 35 35 36 36 36 36 35 34 34
44 43 44 44 44 45 46 45 45 44 44 43 42 42 42 42 41 40 38 37 37 38 38 38 36 35 35 34 34 36 39 39 36 34 33 32 34 34 34 32 32 32 32 33 34 34 33 33 33 33 33 33 33 34 34 35 35 35 35 35 34 34 34
44 44 44 45 45 45 46 46 46 45 45 44 43 43 43 43 43 42 41 39 38 38 38 38 37 36 35 35 35 37 39 38 36 35 34 34 35 35 35 34 33 33 32 33 34 35 35 34 34 34 34 34 34 34 33 33 33 34 34 34 35 34 34
45 45 45 45 46 46 46 46 46 46 45 45 44 44 44 45 44 44 42 40 38 37 37 37 37 36 36 36 36 37 38 39 39 38 36 36 36 36 36 36 35 34 33 33 34 35 35 34 34 34 34 34 34 33 32 32 33 34 35 35 35 35 35
45 45 46 46 47 47 47 46 46 46 46 46 46 46 46 47 47 47 45 43 40 39 38 38 38 38 38 38 38 39 40 41 40 39 38 37 38 38 38 38 37 36 35 34 34 35 35 35 34 34 34 34 33 32 32 33 34 35 36 36 35 35 35
46 46 46 46 47 48 48 47 46 46 46 47 47 47 47 48 48 48 48 46 45 43 42 41 41 41 41 40 41 42 43 43 41 40 38 38 39 40 41 40 39 38 37 36 36 36 36 35 34 34 34 34 33 33 34 34 35 36 36 36 35 35 34
46 46 47 47 47 48 47 47 46 46 47 48 48 48 48 48 47 47 47 47 46 45 45 44 43 42 41 40 41 42 44 44 43 41 38 37 38 41 43 42 41 40 39 38 38 37 36 35 34 34 34 34 34 35 35 36 36 36 36 35 35 34 34
45 46 46 47 46 46 46 46 46 46 47 48 48 48 47 47 46 46 46 46 47 47 47 47 45 43 42 42 42 42 43 44 45 44 42 40 39 40 43 44 42 41 41 40 39 38 37 36 35 35 35 35 36 36 36 36 36 36 36 36 35 34 34
44 44 45 44 44 44 43 44 44 44 45 45 46 46 45 45 44 45 45 46 47 47 47 47 46 45 45 45 45 45 45 44 45 46 46 44 42 41 43 45 45 43 42 41 41 40 39 37 37 36 36 37 37 37 37 36 36 36 36 36 35 35 34
42 42 42 42 41 41 41 41 41 41 41 41 42 42 42 42 42 42 44 45 46 47 47 47 47 46 46 46 46 47 46 45 45 46 47 46 45 44 44 45 46 45 43 42 42 41 39 38 38 38 38 37 37 37 36 36 36 35 36 36 36 35 35
39 39 38 38 38 38 38 37 36 36 36 36 37 37 37 37 37 38 39 41 43 45 46 47 47 47 47 46 46 46 45 45 45 45 46 46 45 45 45 45 45 45 44 43 42 40 39 38 38 38 37 37 36 35 35 35 35 36 36 36 36 35 35
35 35 35 35 34 35 36 35 35 34 34 34 35 35 35 35 35 34 35 36 38 41 42 44 46 46 46 45 44 44 43 43 44 44 44 44 44 44 44 44 44 44 43 42 42 40 39 37 37 36 36 35 34 34 34 34 35 35 35 35 35 35 35
34 34 34 34 34 34 35 36 36 36 35 35 35 35 36 35 35 35 34 35 36 38 39 41 42 43 43 43 43 42 41 41 42 43 43 43 42 42 42 43 43 43 42 41 40 39 38 37 36 35 34 34 34 33 33 33 34 35 35 34 34 34 35
34 35 35 35 36 36 36 36 37 37 36 36 36 36 36 36 35 35 35 35 35 36 37 38 39 41 41 41 41 40 39 39 40 41 41 41 41 41 41 41 41 41 40 39 38 37 36 35 34 33 33 32 33 33 32 32 33 33 34 34 34 34 34
36 37 37 37 37 38 37 37 37 37 37 36 36 36 36 35 35 35 35 35 35 34 34 35 36 37 38 39 39 38 38 37 38 38 39 40 39 39 39 39 39 39 38 37 36 35 35 34 33 32 31 31 31 31 31 31 32 32 33 33 33 33 33
37 37 38 38 38 38 38 38 38 37 37 36 35 35 35 34 34 34 34 34 34 33 32 32 32 33 35 36 36 36 36 36 36 36 37 37 38 38 38 38 37 37 36 36 35 34 33 33 32 31 31 31 31 31 31 31 32 32 32 33 33 33 33
38 38 38 38 38 38 38 38 37 37 36 36 35 34 33 32 32 32 32 32 32 31 30 30 29 30 31 31 32 33 33 33 33 34 34 35 35 36 36 36 35 35 34 33 33 33 32 31 31 31 31 31 31 32 32 32 32 32 32 32 33 33 33
38 38 38 38 38 38 38 37 37 36 35 34 33 32 31 30 29 29 28 28 28 28 28 27 26 26 27 27 28 29 29 30 30 30 31 32 33 33 33 33 33 33 32 32 32 31 31 31 30 30 30 31 32 32 33 33 33 33 33 33 33 34 34
Wind_Direction
285 284 283 281 279 278 279 280 281 282 284 285 287 289 290 290 291 291 292 293 293 293 292 291 291 293 294 293 292 290 288 285 282 280 279 277 275 273 270 268 265 265 266 268 265 261 259 262 265 266 265 264 263 261 257 256 257 259 260 261 261 260 259
285 284 283 282 281 280 279 279 280 280 281 283 284 286 287 288 288 289 290 291 292 293 293 293 293 294 295 294 292 290 286 282 279 277 277 276 275 274 272 269 265 263 264 266 267 264 260 259 261 263 264 264 263 262 258 254 255 256 256 257 258 259 259
283 283 282 281 281 280 280 280 280 280 280 281 282 284 285 286 287 288 289 290 292 293 293 293 294 294 295 294 293 290 286 283 280 278 277 276 274 273 272 270 266 264 264 265 265 263 260 258 258 259 261 262 261 260 255 252 254 256 255 254 254 256 257
282 282 281 281 280 279 280 280 281 281 281 281 282 282 283 284 286 287 288 289 291 292 293 293 293 293 294 295 294 292 288 284 281 279 277 275 274 273 273 272 270 268 267 267 265 263 261 258 256 256 258 260 259 257 255 252 254 256 254 251 251 252 255
281 281 282 282 282 281 281 281 282 282 282 282 282 282 283 283 285 286 287 289 290 291 291 291 291 292 294 296 295 293 288 284 281 278 276 275 273 272 271 270 269 268 269 268 267 265 262 258 256 256 257 259 256 253 254 253 253 254 252 249 249 250 252
281 282 282 283 284 284 284 284 284 284 284 284 283 283 284 284 285 286 287 288 289 289 289 289 289 291 293 294 295 293 290 285 282 279 276 274 272 271 270 268 266 265 265 264 263 263 260 257 257 256 256 256 253 251 253 254 252 251 249 248 248 248 248
283 283 284 284 285 285 285 285 285 286 286 286 286 286 285 285 286 287 287 287 287 286 287 287 288 289 291 292 292 291 290 287 284 281 278 275 273 272 270 268 266 263 259 257 258 260 260 258 256 255 254 254 253 253 254 253 251 249 247 247 247 246 246
284 285 286 286 286 285 285 285 286 286 286 286 286 285 286 286 287 287 286 286 285 284 285 286 286 288 289 290 289 289 288 286 284 281 279 276 274 272 270 268 266 262 258 255 255 257 259 259 257 254 252 251 252 253 253 251 249 248 247 247 247 247 248
286 287 288 288 287 287 287 287 287 287 287 286 286 286 287 287 287 286 285 285 283 283 283 284 284 285 286 287 288 287 285 282 281 280 278 276 274 272 271 269 267 265 261 258 257 257 259 260 260 258 255 254 254 254 253 250 248 248 250 251 251 251 251
286 288 289 289 289 288 287 287 287 287 287 287 287 287 287 287 287 287 286 285 283 282 282 281 281 282 283 284 286 286 285 282 279 278 276 274 273 273 272 271 270 267 264 261 259 260 261 263 263 261 258 255 252 250 249 248 249 252 255 256 256 255 254
286 288 288 288 288 288 287 286 286 285 285 285 285 286 286 287 288 289 288 287 285 283 281 279 278 279 281 283 285 286 283 279 277 278 277 275 274 275 275 274 272 269 266 263 260 260 262 265 265 260 254 250 248 248 249 251 254 256 257 257 257 257 256
287 287 288 288 288 287 287 287 286 285 284 284 284 285 285 286 288 289 289 288 286 282 279 277 277 278 281 282 283 282 279 277 278 280 279 277 276 276 276 275 274 270 267 264 262 260 262 264 264 259 254 251 250 250 252 253 255 257 257 257 257 257 255
287 287 288 288 287 287 287 287 287 286 285 284 284 284 285 286 286 287 288 288 287 285 283 281 281 281 282 281 279 277 277 278 281 280 278 278 277 277 277 276 275 271 267 264 262 261 262 263 262 259 256 254 253 252 253 254 255 256 255 253 253 252 251
287 288 288 288 288 288 289 290 290 288 287 285 285 285 285 286 286 287 288 289 290 290 289 287 285 284 282 278 274 276 278 279 279 278 278 278 277 277 278 279 278 273 267 263 262 262 263 262 260 258 256 254 254 253 253 253 253 253 251 247 245 245 245
288 288 289 289 289 290 292 293 293 291 289 287 286 285 285 285 286 287 288 289 291 291 291 290 287 286 282 273 271 279 282 279 277 277 278 277 276 276 278 279 279 274 267 264 264 263 263 260 256 254 253 252 252 251 251 251 251 251 250 246 244 245 247
287 288 289 290 290 292 294 294 294 293 291 289 287 286 286 286 286 286 287 289 290 288 286 286 286 285 278 267 269 280 282 279 279 279 279 279 275 274 275 275 273 269 265 265 265 265 263 259 255 253 252 251 250 250 250 250 249 250 250 249 248 249 251
287 287 288 289 290 291 293 293 293 294 293 290 287 286 286 285 286 286 288 289 288 284 283 283 283 282 274 264 269 279 280 279 280 280 281 280 274 270 272 272 269 265 264 263 263 264 263 259 255 253 251 250 250 249 249 247 247 248 248 249 250 252 254
288 287 287 288 288 290 291 292 293 294 294 291 288 286 284 284 284 287 290 289 285 281 280 281 279 277 271 267 272 278 279 277 277 278 280 277 270 268 269 269 267 265 264 262 260 260 261 257 254 253 252 250 249 249 248 247 247 248 248 249 251 252 251
289 288 287 287 287 289 290 291 291 292 292 291 289 287 286 284 284 287 290 289 285 281 278 277 276 274 272 273 276 277 275 274 273 275 276 272 267 266 267 267 265 263 263 261 257 257 257 255 254 253 252 250 250 249 249 248 248 249 249 249 249 248 248
289 288 287 287 287 288 289 290 289 290 290 289 288 288 288 285 283 284 286 288 287 284 280 277 278 277 276 276 276 275 273 271 270 272 272 268 266 266 265 264 262 261 261 260 257 255 254 253 253 252 251 250 250 249 249 249 248 248 248 248 248 248 250
288 288 288 288 288 288 289 289 288 288 288 287 286 286 286 285 284 282 282 285 287 285 282 280 280 280 278 276 275 275 273 270 270 272 271 267 266 265 264 263 261 259 260 259 257 255 253 252 253 252 252 251 251 250 250 249 248 248 248 249 250 252 252
287 288 288 288 289 288 288 288 288 288 287 286 285 284 284 285 284 283 283 283 283 282 281 281 281 281 279 277 275 275 273 271 270 272 272 269 268 266 265 263 260 258 258 257 257 256 254 253 253 253 253 252 251 251 250 249 248 248 249 251 252 253 252
287 288 288 289 289 289 289 288 287 286 286 285 284 283 282 282 282 282 282 282 281 279 277 277 277 277 277 276 274 272 270 268 268 269 271 270 268 265 264 262 259 258 257 256 256 255 255 254 254 253 252 252 251 250 249 249 248 249 250 251 252 252 251
289 289 289 289 290 290 289 288 287 286 284 283 282 281 281 280 280 280 281 281 281 280 277 275 274 274 274 274 274 272 269 266 265 266 269 269 267 264 262 261 259 257 256 255 255 255 254 254 253 252 251 250 249 249 249 249 250 250 251 252 251 250 249
292 292 291 291 291 290 289 288 287 285 284 283 282 281 280 279 279 278 278 279 279 279 278 277 275 274 273 274 274 273 270 267 265 265 267 267 266 264 262 261 259 257 255 254 254 253 253 251 250 249 248 248 248 248 248 249 250 252 252 252 250 249 248
294 293 292 291 291 291 290 289 287 286 285 284 283 282 281 280 279 278 277 276 276 277 277 278 276 274 272 272 273 273 271 268 265 264 264 264 263 263 262 260 258 256 254 253 252 251 250 249 247 246 246 245 246 246 247 248 250 252 253 252 250 249 248
293 292 292 292 292 291 291 290 288 287 287 286 285 284 283 281 279 277 276 275 274 275 276 276 275 273 271 270 270 271 271 269 266 264 262 262 261 260 259 258 257 254 252 250 250 249 248 247 245 245 245 244 244 245 246 247 249 251 252 251 251 251 250
294 293 293 293 293 293 292 292 291 291 290 289 289 288 287 284 282 279 277 275 274 274 274 274 273 272 271 270 270 270 270 269 267 264 262 261 259 257 255 254 253 252 250 248 248 248 247 246 245 245 245 244 245 246 246 247 248 249 249 250 250 251 251
296 296 296 296 296 296 295 296 295 295 295 294 294 293 292 291 288 285 281 278 276 275 274 274 273 273 272 271 271 271 270 269 266 264 261 259 258 256 253 251 250 249 248 247 246 246 245 245 245 245 246 246 246 246 246 246 247 247 248 249 250 251 252
299 299 300 300 300 300 299 299 299 298 298 297 297 297 296 295 294 291 287 283 280 277 275 275 274 274 274 273 272 271 270 269 266 263 260 257 256 254 253 251 249 248 247 246 245 244 244 244 244 245 245 246 246 246 246 246 247 247 249 250 251 252 253
302 302 302 302 302 302 301 300 300 299 298 297 296 296 295 295 294 293 290 287 283 280 277 276 275 275 275 274 273 272 270 269 266 263 259 256 253 252 251 250 249 248 247 246 246 245 244 244 244 244 244 244 245 245 245 246 247 248 249 250 251 252 253
304 303 303 302 302 301 300 300 299 298 297 297 295 294 293 293 293 293 292 290 288 284 281 278 276 275 275 275 274 273 271 268 266 263 259 255 252 251 250 250 250 249 249 248 247 246 245 244 243 243 244 244 245 245 246 247 248 249 250 251 252 252 253
304 303 303 303 302 301 301 300 299 298 298 297 296 295 294 293 293 293 292 292 291 289 287 283 279 277 276 276 275 274 271 268 265 261 258 254 251 249 249 248 248 248 247 247 246 245 244 244 243 243 244 245 246 247 247 248 249 250 251 252 253 254 254
305 304 304 304 304 303 302 301 300 300 299 298 298 297 297 296 295 294 293 293 293 293 292 290 286 282 279 277 276 275 272 269 265 261 257 253 250 248 248 247 247 247 247 246 246 245 244 244 243 243 244 245 246 247 248 249 250 251 252 253 254 255 256
306 306 306 305 305 304 303 302 302 301 301 301 301 300 300 299 297 296 295 295 294 295 294 293 291 286 281 277 275 273 270 268 264 260 256 252 249 248 247 245 246 246 246 245 245 244 244 243 242 242 243 244 245 247 248 250 251 252 254 255 256 257 258
307 307 306 305 304 304 303 303 303 303 303 303 303 303 303 302 301 299 298 296 296 296 295 294 293 290 285 280 275 271 267 264 261 258 255 252 249 247 245 244 244 244 243 243 243 243 243 243 242 243 243 244 245 247 248 250 252 254 255 256 257 258 259
Height
3043 3042 3041 3040 3039 3038 3037 3037 3036 3036 3035 3034 3033 3033 3032 3031 3031 3030 3029 3028 3027 3026 3025 3024 3023 3022 3022 3020 3019 3018 3017 3016 3015 3014 3013 3013 3013 3012 3012 3012 3012 3011 3010 3010 3011 3014 3016 3017 3018 3019 3019 3019 3020 3021 3022 3023 3024 3025 3025 3026 3027 3028 3029
3039 3038 3037 3036 3035 3034 3033 3032 3032 3031 3030 3030 3029 3028 3027 3026 3025 3025 3024 3023 3022 3021 3020 3019 3018 3018 3017 3015 3014 3013 3012 3011 3011 3010 3009 3008 3007 3007 3007 3007 3007 3006 3005 3005 3005 3007 3010 3012 3013 3014 3014 3014 3015 3016 3017 3017 3018 3020 3021 3021 3022 3023 3024
3035 3034 3033 3032 3031 3030 3029 3028 3027 3026 3026 3025 3024 3023 3022 3021 3020 3020 3019 3018 3017 3016 3015 3014 3014 3013 3012 3010 3009 3008 3007 3006 3005 3005 3004 3003 3002 3002 3002 3002 3001 3001 3000 3000 3000 3001 3003 3006 3007 3008 3009 3009 3010 3010 3011 3012 3013 3014 3015 3016 3017 3018 3019
3031 3030 3029 3028 3027 3026 3025 3024 3023 3022 3021 3020 3019 3018 3017 3016 3015 3014 3014 3013 3012 3011 3010 3010 3009 3008 3007 3006 3004 3003 3002 3001 3000 2999 2999 2998 2997 2997 2997 2997 2996 2996 2996 2996 2996 2996 2998 3000 3001 3002 3003 3004 3004 3005 3006 3008 3009 3009 3010 3011 3011 3012 3013
3027 3026 3024 3023 3022 3021 3020 3019 3018 3018 3017 3016 3015 3013 3012 3011 3010 3009 3008 3008 3007 3006 3005 3005 3004 3003 3002 3001 3000 2998 2997 2996 2994 2994 2993 2993 2992 2992 2992 2992 2991 2991 2991 2991 2991 2991 2993 2994 2995 2996 2998 2998 2999 3000 3001 3003 3004 3004 3004 3005 3006 3007 3008
3022 3021 3020 3019 3018 3017 3016 3015 3014 3013 3012 3011 3010 3008 3007 3006 3005 3004 3003 3003 3002 3001 3000 3000 2999 2998 2997 2996 2995 2993 2992 2991 2990 2989 2988 2988 2987 2987 2987 2987 2987 2987 2987 2987 2987 2987 2987 2988 2990 2991 2992 2993 2994 2995 2996 2997 2998 2999 2999 3000 3001 3001 3003
3018 3017 3016 3015 3014 3013 3012 3011 3010 3008 3007 3006 3004 3003 3002 3001 3000 2999 2998 2997 2997 2996 2995 2994 2994 2993 2992 2991 2990 2988 2987 2986 2985 2984 2983 2983 2983 2982 2982 2982 2982 2982 2982 2982 2982 2982 2983 2984 2985 2986 2987 2988 2989 2990 2990 2991 2992 2993 2994 2994 2995 2996 2997
3014 3013 3012 3011 3009 3008 3007 3006 3005 3003 3002 3000 2999 2997 2996 2995 2994 2993 2992 2992 2991 2990 2989 2989 2988 2987 2986 2985 2984 2983 2981 2980 2979 2978 2978 2978 2978 2977 2977 2977 2976 2976 2976 2977 2977 2978 2978 2979 2980 2980 2981 2982 2983 2983 2984 2986 2987 2988 2989 2989 2990 2992 2993
3010 3009 3007 3006 3005 3004 3002 3001 3000 2998 2996 2995 2993 2992 2991 2989 2988 2987 2986 2986 2985 2984 2984 2983 2982 2981 2981 2980 2978 2977 2976 2975 2974 2973 2973 2972 2972 2972 2971 2971 2971 2971 2971 2972 2972 2973 2974 2974 2975 2975 2976 2976 2977 2979 2980 2981 2982 2982 2983 2984 2986 2987 2988
3005 3004 3003 3002 3000 2999 2997 2996 2994 2993 2991 2989 2988 2986 2985 2984 2982 2981 2981 2980 2979 2979 2978 2977 2976 2975 2974 2973 2972 2972 2970 2969 2969 2968 2967 2966 2966 2966 2965 2965 2965 2965 2966 2966 2967 2968 2969 2969 2969 2970 2971 2972 2973 2974 2975 2975 2976 2977 2978 2979 2980 2981 2983
3001 3000 2998 2997 2995 2994 2992 2991 2989 2987 2986 2984 2982 2981 2979 2978 2977 2976 2975 2974 2973 2972 2972 2970 2969 2969 2968 2967 2967 2966 2965 2964 2963 2962 2962 2961 2961 2961 2960 2960 2960 2960 2960 2961 2961 2962 2963 2963 2964 2965 2966 2966 2967 2968 2969 2970 2971 2972 2973 2974 2975 2977 2978
2996 2995 2993 2992 2990 2989 2987 2985 2984 2982 2980 2978 2976 2975 2973 2972 2971 2970 2969 2968 2967 2966 2965 2964 2963 2962 2962 2961 2961 2960 2959 2958 2958 2957 2957 2957 2956 2956 2955 2955 2955 2955 2955 2956 2956 2957 2957 2958 2959 2959 2960 2961 2961 2962 2963 2964 2965 2966 2968 2969 2971 2972 2973
2991 2990 2988 2987 2985 2983 2981 2980 2978 2976 2974 2972 2970 2968 2967 2965 2964 2964 2963 2962 2961 2960 2959 2958 2957 2956 2956 2956 2955 2954 2953 2953 2953 2952 2951 2951 2951 2950 2950 2950 2950 2950 2950 2950 2951 2951 2952 2953 2953 2954 2955 2955 2956 2957 2958 2959 2960 2961 2963 2965 2965 2967 2968
2985 2984 2983 2981 2979 2977 2976 2974 2972 2970 2968 2966 2964 2962 2960 2959 2958 2958 2957 2957 2955 2954 2953 2952 2951 2951 2950 2950 2949 2949 2949 2948 2947 2947 2946 2945 2945 2945 2945 2944 2944 2944 2945 2945 2946 2946 2947 2947 2948 2948 2949 2950 2950 2951 2952 2954 2955 2956 2958 2959 2960 2962 2964
2979 2978 2976 2975 2973 2971 2970 2968 2966 2963 2961 2959 2957 2955 2954 2953 2952 2952 2952 2951 2950 2948 2947 2946 2946 2945 2945 2944 2944 2944 2944 2943 2942 2941 2941 2940 2940 2940 2940 2939 2939 2940 2940 2940 2941 2941 2942 2942 2943 2943 2944 2945 2945 2946 2947 2949 2950 2951 2952 2954 2955 2956 2958
2972 2971 2969 2968 2967 2965 2963 2961 2959 2957 2955 2953 2951 2949 2948 2947 2947 2946 2946 2945 2944 2943 2942 2941 2941 2940 2939 2939 2939 2939 2938 2937 2937 2936 2935 2935 2935 2934 2934 2934 2935 2935 2935 2935 2936 2936 2936 2937 2937 2938 2939 2940 2940 2941 2943 2944 2945 2946 2947 2949 2950 2951 2953
2966 2964 2963 2961 2960 2959 2957 2955 2954 2952 2950 2947 2945 2944 2942 2941 2941 2941 2940 2940 2939 2938 2937 2936 2935 2935 2934 2934 2934 2933 2932 2932 2931 2930 2930 2929 2929 2929 2929 2929 2929 2930 2930 2930 2930 2931 2931 2931 2932 2933 2934 2935 2936 2937 2938 2939 2940 2941 2943 2944 2945 2947 2948
2959 2958 2956 2955 2953 2952 2951 2949 2948 2946 2944 2942 2940 2938 2936 2935 2935 2935 2935 2934 2933 2932 2931 2931 2930 2929 2929 2929 2929 2928 2927 2926 2925 2925 2924 2924 2924 2924 2923 2924 2924 2924 2924 2925 2925 2925 2926 2926 2927 2928 2929 2930 2931 2932 2933 2934 2935 2937 2938 2939 2940 2942 2943
2952 2951 2950 2948 2947 2946 2944 2943 2941 2940 2938 2936 2934 2932 2930 2929 2929 2929 2929 2928 2928 2927 2926 2925 2925 2924 2924 2923 2923 2922 2921 2920 2920 2919 2919 2918 2918 2918 2918 2918 2918 2918 2919 2919 2920 2920 2921 2922 2922 2923 2924 2925 2926 2927 2928 2930 2931 2932 2933 2934 2935 2936 2937
2946 2944 2943 2942 2940 2939 2938 2936 2935 2933 2932 2930 2928 2926 2924 2923 2923 2923 2923 2922 2922 2921 2920 2920 2920 2919 2918 2917 2917 2916 2915 2914 2914 2913 2913 2913 2913 2913 2913 2913 2913 2913 2913 2914 2915 2915 2916 2916 2917 2918 2919 2920 2921 2922 2923 2925 2926 2927 2927 2929 2930 2931 2932
2938 2937 2936 2934 2933 2932 2931 2929 2928 2926 2925 2923 2922 2920 2919 2917 2916 2916 2916 2916 2915 2915 2914 2914 2914 2913 2912 2911 2911 2911 2910 2909 2908 2908 2907 2907 2907 2907 2908 2907 2907 2908 2908 2909 2909 2910 2911 2911 2912 2913 2914 2915 2916 2917 2919 2920 2921 2922 2923 2924 2925 2926 2927
2931 2930 2928 2927 2926 2925 2924 2923 2921 2920 2918 2917 2916 2914 2912 2911 2910 2909 2909 2909 2909 2909 2908 2908 2908 2907 2906 2906 2905 2905 2904 2903 2903 2902 2902 2902 2902 2902 2902 2902 2902 2902 2903 2903 2904 2905 2906 2907 2908 2909 2909 2910 2912 2913 2914 2915 2916 2917 2918 2919 2920 2921 2922
2924 2923 2922 2920 2919 2917 2917 2916 2914 2913 2911 2910 2908 2907 2906 2904 2903 2902 2902 2902 2902 2902 2902 2902 2901 2901 2900 2899 2899 2898 2897 2897 2897 2897 2896 2897 2897 2897 2897 2896 2896 2896 2897 2898 2899 2900 2901 2902 2903 2904 2905 2906 2907 2908 2910 2911 2911 2912 2913 2914 2915 2916 2917
2917 2916 2915 2913 2912 2910 2909 2908 2907 2906 2904 2902 2901 2900 2898 2897 2896 2895 2895 2895 2895 2895 2894 2894 2894 2894 2894 2893 2892 2891 2890 2890 2890 2890 2890 2891 2891 2891 2891 2890 2890 2891 2892 2893 2894 2895 2896 2897 2898 2899 2900 2901 2902 2904 2905 2905 2906 2907 2908 2909 2910 2911 2912
2910 2909 2907 2906 2905 2903 2902 2901 2900 2898 2896 2895 2893 2892 2891 2890 2889 2888 2888 2887 2887 2887 2887 2887 2887 2886 2886 2886 2885 2884 2884 2883 2884 2884 2884 2884 2884 2884 2884 2885 2885 2885 2886 2887 2888 2889 2890 2892 2893 2894 2895 2896 2898 2898 2899 2900 2901 2902 2903 2904 2905 2906 2907
2903 2901 2900 2899 2897 2896 2894 2893 2892 2891 2889 2887 2885 2884 2883 2882 2881 2881 2880 2880 2879 2879 2879 2879 2879 2879 2879 2878 2877 2877 2876 2876 2877 2878 2878 2877 2877 2878 2878 2879 2879 2879 2880 2881 2883 2884 2885 2886 2887 2889 2890 2891 2892 2893 2894 2896 2897 2898 2898 2899 2900 2901 2902
2896 2895 2893 2892 2890 2889 2887 2886 2885 2883 2882 2880 2878 2877 2876 2875 2874 2874 2873 2873 2872 2871 2871 2871 2871 2871 2871 2870 2870 2869 2869 2869 2870 2870 2870 2870 2870 2871 2871 2872 2873 2873 2874 2875 2876 2878 2879 2881 2882 2883 2885 2886 2887 2888 2889 2891 2892 2893 2893 2894 2895 2896 2898
2890 2888 2887 2885 2884 2882 2881 2880 2878 2877 2875 2873 2872 2870 2869 2868 2868 2867 2866 2866 2865 2864 2864 2863 2863 2863 2863 2862 2862 2861 2861 2862 2862 2863 2863 2863 2863 2863 2864 2865 2866 2867 2868 2869 2870 2872 2874 2875 2877 2878 2879 2880 2882 2883 2884 2886 2887 2887 2888 2889 2890 2892 2893
2884 2883 2881 2880 2878 2876 2875 2874 2872 2871 2869 2867 2866 2864 2863 2862 2861 2860 2859 2859 2858 2857 2856 2855 2855 2855 2855 2855 2854 2854 2854 2854 2855 2855 2856 2856 2856 2857 2857 2858 2859 2861 2862 2863 2865 2866 2868 2869 2871 2872 2874 2875 2877 2878 2879 2880 2881 2882 2883 2884 2885 2887 2888
2879 2878 2877 2875 2873 2871 2869 2868 2867 2865 2864 2862 2860 2858 2857 2856 2855 2854 2853 2852 2851 2850 2849 2848 2848 2848 2847 2847 2847 2847 2847 2847 2847 2848 2848 2849 2849 2850 2851 2852 2853 2854 2856 2857 2858 2860 2862 2863 2865 2866 2868 2870 2871 2873 2874 2875 2876 2877 2878 2879 2881 2882 2883
2875 2873 2872 2870 2868 2867 2864 2862 2861 2859 2858 2856 2855 2853 2851 2850 2848 2847 2847 2846 2845 2844 2843 2842 2842 2841 2841 2841 2840 2840 2840 2841 2841 2841 2842 2842 2843 2844 2845 2846 2848 2849 2850 2851 2853 2854 2856 2857 2859 2861 2862 2864 2865 2867 2868 2869 2870 2871 2873 2874 2876 2877 2878
2870 2869 2867 2865 2863 2862 2860 2858 2856 2854 2853 2851 2849 2848 2846 2845 2843 2842 2841 2840 2838 2838 2837 2836 2836 2835 2835 2834 2834 2834 2834 2834 2835 2835 2836 2836 2837 2838 2839 2841 2842 2844 2845 2846 2847 2849 2850 2852 2853 2855 2857 2858 2860 2861 2863 2864 2865 2866 2868 2869 2870 2872 2873
2866 2864 2862 2860 2858 2856 2855 2853 2851 2850 2848 2846 2844 2842 2841 2840 2838 2836 2835 2834 2833 2832 2831 2830 2830 2829 2829 2828 2828 2828 2828 2828 2828 2829 2830 2830 2831 2832 2834 2835 2836 2838 2839 2841 2842 2844 2845 2846 2848 2850 2852 2853 2855 2856 2858 2859 2860 2862 2863 2864 2866 2867 2868
2862 2859 2857 2855 2853 2851 2849 2848 2846 2844 2842 2840 2839 2837 2836 2835 2833 2831 2830 2829 2828 2827 2826 2825 2824 2824 2823 2823 2823 2823 2823 2823 2823 2823 2824 2825 2826 2827 2828 2830 2831 2833 2834 2836 2837 2839 2840 2842 2844 2845 2847 2849 2850 2851 2853 2854 2855 2857 2858 2859 2860 2861 2862
2857 2854 2852 2850 2848 2846 2844 2842 2840 2839 2837 2835 2834 2832 2831 2830 2828 2827 2825 2824 2823 2822 2821 2820 2819 2819 2818 2818 2817 2817 2817 2817 2818 2818 2819 2820 2821 2822 2824 2825 2826 2828 2830 2831 2832 2834 2835 2837 2839 2840 2842 2844 2845 2846 2848 2849 2850 2851 2852 2854 2855 2856 2857
2851 2849 2847 2845 2843 2841 2839 2837 2835 2834 2832 2831 2829 2828 2826 2825 2824 2822 2821 2820 2819 2818 2816 2816 2815 2814 2813 2813 2812 2812 2812 2812 2813 2814 2814 2815 2816 2818 2819 2821 2822 2824 2825 2826 2828 2829 2831 2833 2835 2836 2838 2839 2840 2841 2842 2844 2845 2846 2847 2849 2850 2850 2851